DMSP 5D-2 F13 DEB, 40500

Orbit data source: Space-Track

DMSP 5D-2 F13 DEB, 40500 is space debris in SSO originally from a launch on Fri, 24 Mar 1995 UTC launched from the Air Force Western Test Range (AFWTR). Debris objects in space refer to the collection of defunct objects orbiting the Earth. Examples of debris include non-operational satellites, rocket bodies, and fragments generated from explosions, collisions, or faulty payload assembly.

Loading next visibility...
Identifier
40500, 1995-015CP
Orbit
SSO
Country
Flag of USUS
Related business
Manufacturer
Unknown
Mission
Spacecraft
Bus & Motor
Unknown
Mass
Unknown
Launch date (UTC)
1995-03-24 (31 years ago)
Launch vehicle
Unknown
Launch site
Air Force Western Test Range (AFWTR)
Object type
Payload
Rocket body
Debris
Shape & HBR
Unknown shape, 0.1 m
Radar Cross Section
Small (<0.1 m²)

Expand to show TLE details & history
Last TLE update: 1 week ago

TLE from 1 week ago
0 DMSP 5D-2 F13 DEB
1 40500U 95015CP  26066.50805995  .00167441  00000-0  13984-1 0  9999
2 40500  98.7878 156.2683 0006059 182.3212 177.7980 14.97633156571397
Epoch: 2026-03-07T12:11Z
TLE epoch observation values (Epoch: 2026-03-07T12:11:36.379Z)
Latitude
-0°
Longitude
168.13802°
Altitude
581.439 km
Speed
7.567 km/s
True Right ascension
10h 25m 04s
True Declination
0° 00' 00"
Sunlit
Object was in full shadow at epoch
Visualization orbit readout
Latitude
Unknown
Longitude
Unknown
Altitude
Unknown
Speed
Unknown
Apparent Right ascension
Unknown
Apparent Declination
Unknown
Sunlit
N/A
Visualization observer readout
Local Sidereal Time
18:42:20
Azimuth
Unknown
Elevation
Unknown
Doppler factor
Unknown
Orbital elements
Apogee altitude
575.482 km
Perigee altitude
567.061 km
Semi-major axis
6,949.408 km
Eccentricity
0.00061
Inclination
98.7878°
RAAN
156.2683°
Arg. of periapsis
182.3212°
True anomaly
177.80067°
Mean anomaly
177.798°
Eccentric anomaly
177.79933°
Mean motion
3.74646 °/min
Orbital period
96.09 mins
BSTAR
0.013984

Documentation

Showing up to 5 results
|